Погода в Ясной Поляне

Россия / Тульская область     54°04′20″N   37°31′45″E
темп.,
°C
ветер,
м/с
пор.,
м/с
влажн.,
%
обл.,
%
осадки,
мм/ч
давл.,
гПа
погр.,
м
8 мая, сб
сб800:00+7ююв41174100 0.0 1013207
03:00+9ю71667100 0.0 1011670
06:00+8ююв81691100 3.5 1009756
09:00+9ю81592100 5.6 1007939
12:00+8ююв71495100 4.9 1005741
15:00+9ю51297100 13.0 1004748
18:00+10ююз61096100 1.1 1002761
21:00+8зюз4796100 1.2 1004341
9 мая, вс
вс900:00+8сз51095100 0.2 1004632
03:00+4сз81397100 3.8 10081080
06:00+4сз71289100 4.4 1012940
09:00+6сз81080100 4.6 10141095
12:00+6сз6977100 0.1 10181285
15:00+8сз7106663 0.1 10191463
18:00+9сз610625 0.1 10201273
21:00+5сз46770 0.1 102499
10 мая, пн
пн1000:00+4сз35770 0.0 102663
03:00+3ссз35780 0.0 102858
06:00+4с35775 0.0 1030102
09:00+10с34585 0.0 1030475
12:00+13ссв45455 0.0 10301415
15:00+14ссв45445 0.0 10291665
18:00+13ссв46573 0.0 1029453
21:00+8св34703 0.0 103044
11 мая, вт
вт1100:00+7св36710 0.0 103072
03:00+6св36760 0.0 103182
06:00+6св39773 0.0 1031209
09:00+12всв611585 0.0 1031708
12:00+15всв79510 0.0 10301040
15:00+17всв68510 0.0 10281054
18:00+16в58625 0.0 1028750
21:00+11всв37790 0.0 1028112
12 мая, ср
ср1200:00+9всв4128153 0.0 1028233
03:00+8всв411877 0.0 1027216
06:00+9всв4118620 0.0 1026286
09:00+14в71273100 0.0 1026592
12:00+14в71374100 0.0 1025670
15:00+17в7126945 0.0 1024923
18:00+17в7127593 0.0 1023878
21:00+15в6147958 0.0 1023572